Weather History for New Philadelphia, OH

Change the Weather History Date:

Wednesday, June 25, 2014

  Actual Average Record
Temperature  
Mean Temperature 74 °F 71 °F  
Max Temperature 81 °F 82 °F 92 °F (1966)
Min Temperature 66 °F 60 °F 40 °F (1979)
Degree Days  
Heating Degree Days 0 0  
Month to date heating degree days 10 33  
Since 1 June heating degree days 10 33  
Since 1 July heating degree days 6170 5642  
Cooling Degree Days 9 6  
Month to date cooling degree days 127 111  
Year to date cooling degree days 193 154  
Since 1 June cooling degree days 127 111  
Growing Degree Days 24 (Base 50)    
Moisture  
Dew Point 68 °F    
Average Humidity 84    
Maximum Humidity 100    
Minimum Humidity 67    
Precipitation  
Precipitation 1.02 in 0.10 in 2.06 in (1981)
Month to date precipitation 4.72 3.31  
Year to date precipitation 19.90 18.91  
Sea Level Pressure  
Sea Level Pressure 29.91 in    
Wind  
Wind Speed 5 mph (East)    
Max Wind Speed 15 mph    
Max Gust Speed 18 mph    
Visibility 7 miles    
Events Rain , Thunderstorm    
T = Trace of Precipitation, MM = Missing Value Source: NWS Daily Summary

Daily Weather History Graph

Daily Weather History Graph

Search for Another Location

Airport:

Trip Planner

Search our weather history database for the weather conditions in past years. The results will help you decide how hot, cold, wet, or windy it might be!

Date:

Astronomy

Jun. 25, 2014 Rise Set
Actual Time 5:56 AM EDT 9:00 PM EDT
Civil Twilight 5:23 AM EDT 9:33 PM EDT
Nautical Twilight 4:41 AM EDT 10:15 PM EDT
Astronomical Twilight 3:51 AM EDT 11:05 PM EDT
Moon 4:47 AM EDT (6/25) 7:30 PM EDT (6/25)
Length of Visible Light 16h 09m
Length of Day
15h 03m
Waning Crescent, 3% of the Moon is Illuminated
Jun 25
Waning Crescent
Jun 27
New
Jul 5
First Quarter
Jul 12
Full
Jul 18
Last Quarter

Hourly Weather History & Observations

Time (EDT) Temp. Heat Index Dew Point Humidity Pressure Visibility Wind Dir Wind Speed Gust Speed Precip Events Conditions
12:53 AM 69.1 °F - 68.0 °F 96% 29.91 in 6.0 mi SE 5.8 mph - N/A   Mostly Cloudy
1:36 AM 69.1 °F - 68.0 °F 96% 29.93 in 2.5 mi WNW 4.6 mph - 0.06 in Rain Light Rain
1:42 AM 69.1 °F - 68.0 °F 96% 29.93 in 1.2 mi Variable 3.5 mph - 0.15 in Rain , Thunderstorm Heavy Rain
1:50 AM 69.8 °F - 68.0 °F 94% 29.93 in 1.0 mi Calm Calm - 0.27 in Rain , Thunderstorm Rain
1:53 AM 68.0 °F - 68.0 °F 100% 29.91 in 1.0 mi WNW 3.5 mph - 0.31 in Rain , Thunderstorm Heavy Rain
1:56 AM 68.0 °F - 68.0 °F 100% 29.93 in 0.8 mi North 3.5 mph - 0.02 in Rain , Thunderstorm Heavy Rain
2:00 AM 69.1 °F - 68.0 °F 96% 29.92 in 1.2 mi Calm Calm - 0.05 in Rain , Thunderstorm Heavy Rain
2:09 AM 69.1 °F - 68.0 °F 96% 29.93 in 3.0 mi SE 4.6 mph - 0.08 in Rain , Thunderstorm Light Rain
2:18 AM 69.1 °F - 68.0 °F 96% 29.92 in 2.5 mi SE 4.6 mph - 0.14 in Rain Heavy Rain
2:53 AM 69.1 °F - 68.0 °F 96% 29.90 in 4.0 mi East 3.5 mph - 0.33 in Rain Rain
3:31 AM 69.1 °F - 68.0 °F 96% 29.90 in 6.0 mi East 3.5 mph - 0.06 in Rain Light Rain
3:53 AM 69.1 °F - 68.0 °F 96% 29.88 in 7.0 mi ESE 4.6 mph - 0.07 in Rain Light Rain
4:51 AM 69.8 °F - 68.0 °F 94% 29.89 in 9.0 mi SE 5.8 mph - 0.01 in   Overcast
4:53 AM 69.1 °F - 68.0 °F 96% 29.87 in 9.0 mi SSE 3.5 mph - 0.01 in   Mostly Cloudy
5:03 AM 69.1 °F - 68.0 °F 96% 29.89 in 8.0 mi Calm Calm - N/A   Overcast
5:53 AM 69.1 °F - 68.0 °F 96% 29.88 in 9.0 mi SE 4.6 mph - N/A   Overcast
6:00 AM 69.1 °F - 68.0 °F 96% 29.90 in 9.0 mi SSE 3.5 mph - N/A   Overcast
6:28 AM 69.1 °F - 68.0 °F 96% 29.90 in 2.5 mi Calm Calm - 0.09 in Rain Heavy Rain
6:34 AM 69.1 °F - 68.0 °F 96% 29.90 in 1.8 mi Calm Calm - 0.14 in Rain Heavy Rain
6:44 AM 69.1 °F - 68.0 °F 96% 29.90 in 1.2 mi Calm Calm - 0.24 in Rain Rain
6:51 AM 69.8 °F - 68.0 °F 94% 29.90 in 3.0 mi SE 4.6 mph - 0.24 in Rain Light Rain
7:11 AM 69.1 °F - 68.0 °F 96% 29.90 in 2.5 mi SE 3.5 mph - 0.03 in Rain Rain
7:35 AM 69.1 °F - 68.0 °F 96% 29.89 in 5.0 mi SE 5.8 mph - 0.06 in   Overcast
7:46 AM 69.1 °F - 68.0 °F 96% 29.90 in 6.0 mi SE 5.8 mph - 0.06 in   Overcast
7:53 AM 69.1 °F - 68.0 °F 96% 29.88 in 7.0 mi SE 8.1 mph - 0.06 in   Overcast
8:20 AM 70.0 °F - 69.1 °F 97% 29.91 in 9.0 mi Calm Calm - N/A   Overcast
8:34 AM 70.0 °F - 69.1 °F 97% 29.91 in 10.0 mi Calm Calm - N/A   Overcast
8:53 AM 70.0 °F - 69.1 °F 97% 29.91 in 10.0 mi WSW 4.6 mph - N/A   Overcast
9:53 AM 71.1 °F - 69.1 °F 93% 29.91 in 10.0 mi Calm Calm - N/A   Overcast
10:53 AM 73.9 °F - 71.1 °F 91% 29.91 in 10.0 mi Variable 4.6 mph - N/A   Overcast
11:03 AM 73.9 °F - 70.0 °F 87% 29.92 in 10.0 mi Variable 3.5 mph - N/A   Overcast
11:14 AM 73.9 °F - 69.1 °F 85% 29.93 in 10.0 mi WSW 4.6 mph - N/A   Overcast
11:22 AM 73.9 °F - 70.0 °F 87% 29.92 in 10.0 mi West 4.6 mph - N/A   Overcast
11:53 AM 71.1 °F - 69.1 °F 93% 29.92 in - North 6.9 mph - 0.00 in   Overcast
12:53 PM 72.0 °F - 69.1 °F 91% 29.93 in 8.0 mi Variable 4.6 mph - 0.00 in Rain Light Rain
1:53 PM 78.1 °F - 70.0 °F 76% 29.91 in 10.0 mi Variable 5.8 mph - 0.00 in   Scattered Clouds
2:36 PM 78.1 °F - 68.0 °F 71% 29.92 in 10.0 mi North 9.2 mph - N/A   Mostly Cloudy
2:53 PM 80.1 °F 82.9 °F 69.1 °F 69% 29.90 in 10.0 mi NNW 9.2 mph - N/A   Mostly Cloudy
3:03 PM 79.0 °F - 66.9 °F 66% 29.92 in 10.0 mi North 9.2 mph - N/A   Scattered Clouds
4:53 PM 79.0 °F - 68.0 °F 69% 29.90 in 10.0 mi North 6.9 mph - N/A   Mostly Cloudy
5:53 PM 78.1 °F - 66.0 °F 66% 29.90 in 10.0 mi North 9.2 mph - N/A   Scattered Clouds
6:53 PM 79.0 °F - 66.9 °F 66% 29.90 in 10.0 mi North 8.1 mph - N/A   Partly Cloudy
7:53 PM 78.1 °F - 66.0 °F 66% 29.91 in 10.0 mi North 5.8 mph - N/A   Clear
10:53 PM 70.0 °F - 66.0 °F 87% 29.96 in 10.0 mi Calm Calm - N/A   Clear
11:53 PM 66.9 °F - 66.0 °F 97% 29.97 in 6.0 mi Calm Calm - N/A   Clear